This is the latest recevied weather packets stored in our database for station/object WX7FGZ-6. If no packets are shown the sender has not sent any weather packets the latest 10 day(s).
| Time | Temp. | Humidity | Pressure | Rain* | Wind** | Luminosity | Snow |
|---|---|---|---|---|---|---|---|
| 1777862126 | 3.89° C | 58% | 1018.5 hPa | 0 mm | - | - | - |
| 1777861826 | 3.89° C | 58% | 1018.6 hPa | 0 mm | - | - | - |
| 1777861526 | 3.89° C | 58% | 1018.6 hPa | 0 mm | - | - | - |
| 1777860661 | 4.44° C | 56% | 1018.5 hPa | 0 mm | - | - | - |
| 1777860145 | 4.44° C | 56% | 1018.4 hPa | 0 mm | - | - | - |
| 1777859844 | 5° C | 55% | 1018.4 hPa | 0 mm | - | - | - |
| 1777859545 | 5° C | 54% | 1018.6 hPa | 0 mm | - | - | - |
| 1777859245 | 5.56° C | 53% | 1018.5 hPa | 0 mm | - | - | - |
| 1777859098 | 5.56° C | 53% | 1018.7 hPa | 0 mm | - | - | - |
| 1777858945 | 5.56° C | 53% | 1018.7 hPa | 0 mm | - | - | - |
| 1777858898 | 5.56° C | 52% | 1018.8 hPa | 0 mm | - | - | - |
| 1777858645 | 5.56° C | 52% | 1018.8 hPa | 0 mm | - | - | - |
| 1777858546 | 5° C | 52% | 1019.1 hPa | 0 mm | - | - | - |
| 1777858345 | 5° C | 52% | 1019.1 hPa | 0 mm | - | - | - |
| 1777858336 | 5° C | 50% | 1018.9 hPa | 0 mm | - | - | - |
| 1777858044 | 5° C | 50% | 1018.9 hPa | 0 mm | - | - | - |
| 1777857744 | 5.56° C | 47% | 1019 hPa | 0 mm | - | - | - |
| 1777857444 | 6.11° C | 45% | 1019.1 hPa | 0 mm | - | - | - |
| 1777857144 | 6.11° C | 45% | 1019 hPa | 0 mm | - | - | - |
| 1777857097 | 6.67° C | 45% | 1019.2 hPa | 0 mm | - | - | - |
| 1777856844 | 6.67° C | 45% | 1019.2 hPa | 0 mm | - | - | - |
| 1777856545 | 6.67° C | 45% | 1019.2 hPa | 0 mm | - | - | - |
| 1777856245 | 6.67° C | 45% | 1019.2 hPa | 0 mm | - | - | - |
| 1777855945 | 6.67° C | 42% | 1019.3 hPa | 0 mm | - | - | - |
| 1777855645 | 7.78° C | 40% | 1019.3 hPa | 0 mm | - | - | - |
* Rain latest hour (hover to see other rain measurements)
** Current wind speed in m/s (hover to see current wind gust speed)